Location: Unspecified
(0.0000°N, 0.0000°E)
Time: 13:39:45
(UTC+00:00)

Vanguard 1 Rocket - Pass Details

Date: 24 November 2019
Orbit: 650 x 4226 km, 34.3° (Epoch: 08 December)

Event Time Altitude Azimuth Distance (km) Brightness Sun altitude
Rises 23:14:09 0° 251° (WSW) 6,739 12.0 -67.9°
Reaches altitude 10° 23:20:08 10° 260° (W) 5,058 11.2 -68.4°
Enters shadow 23:20:35 11° 261° (W) 4,932 11.2 -68.4°
